Regional Weather Roundup
Issued by NWS Upton, NY

Current Version | Previous Version | Graphics & Text | Print | Product List | Glossary Off
Versions: 1 2 3 4 5 6 7 8 9 10 11 12 13 14 15 16 17 18 19 20 21 22 23 24 25 26 27 28 29 30 31 32 33 34 35 36 37 38 39 40 41 42 43 44 45 46 47 48 49 50

000
ASUS41 KOKX 270104
RWROKX

REGIONAL WEATHER ROUNDUP
NATIONAL WEATHER SERVICE NEW YORK NY
900 PM EDT MON SEP 26 2016

NOTE: "FAIR" INDICATES FEW OR NO CLOUDS BELOW 12,000 FEET WITH NO
SIGNIFICANT WEATHER AND/OR OBSTRUCTIONS TO VISIBILITY.

NYZ071-072-176-178-NJZ106-104-270200-
NEW YORK CITY METRO AREA

CITY           SKY/WX    TMP DP  RH WIND       PRES   REMARKS
Central Park   CLOUDY    67  52  58 VRB7      30.08S
LaGuardia APRT CLOUDY    70  54  56 S10G21    30.05R
Kennedy INTL   CLOUDY    68  53  58 S14       30.07S
Newark/Liberty CLOUDY    68  53  58 S8        30.06S
Bronx Bot Gard   N/A     66  52  59 S8        30.06F
Wall St Helipt CLOUDY    70  57  64 S9        30.07S
Teterboro      CLOUDY    68  51  54 S12       30.04S
$$

NYZ177-179-078>081-270200-
LONG ISLAND NEW YORK

CITY           SKY/WX    TMP DP  RH WIND       PRES   REMARKS
Farmingdale    CLOUDY    67  53  61 S12       30.07S
MacArthur/ISP  CLOUDY    66  52  60 S12       30.07S
Shirley        PTCLDY    65  50  58 S12       30.08S
Riverhead      NOT AVBL
Westhampton    CLEAR     64  48  56 S10       30.09F
Southampton      N/A     66  52  59 S13       30.04F
Bridgehampton    N/A     61  52  72 S3        29.93F
East Hampton   FAIR      63  49  60 S6        30.08S
Montauk          N/A     65  52  62 S8        30.09F
$$

NYZ052-065-067-270200-
HUDSON VALLEY

CITY           SKY/WX    TMP DP  RH WIND       PRES   REMARKS
White Plains   CLOUDY    65  51  60 S8        30.05S
Newburgh       CLOUDY    66  52  59 S12       30.05S
Montgomery     CLOUDY    66  51  58 S6        30.02F
Poughkeepsie   CLOUDY    65  50  58 S7        30.02S
Albany         PTCLDY    65  48  54 S12G20    29.96F
$$

NJZ001-105-106-008-010-013-015-019>022-104-270200-
NEW JERSEY

CITY           SKY/WX    TMP DP  RH WIND       PRES   REMARKS
Newark/Liberty CLOUDY    68  53  58 S8        30.06S
Teterboro      CLOUDY    68  51  54 S12       30.04S
Caldwell       CLOUDY    67  50  54 SW6       30.06R
Morristown     CLOUDY    66  52  59 SW12      30.06R
Somerville     CLOUDY    66  51  58 VRB3      30.04R
Linden         NOT AVBL
Sussex         CLOUDY    65  50  58 S3        30.03S
Abdover          N/A     64  48  56 VRB3      30.04S
Trenton        CLOUDY    66  54  65 S9        30.05S
Millville      CLOUDY    70  60  70 S6        30.05F
Atlantic City  CLOUDY    71  59  65 S8        30.06S
Wrightstown    CLOUDY    65  56  71 S5        30.02F
Toms River     CLOUDY    67  58  72 S5        30.06F
Belmar         CLOUDY    67  57  70 VRB7      30.07S
$$

PAZ047>061-062-071-270200-
EASTERN PENNSYLVANIA

CITY           SKY/WX    TMP DP  RH WIND       PRES   REMARKS
Philadelphia   CLOUDY    69  57  65 S7        30.05S
Allentown      CLOUDY    67  50  54 VRB3      30.04S
Scranton       CLOUDY    64  52  64 SW7       30.02R
$$

CTZ002-004>006-009-010-012-RIZ004-006-007-MAZ004-011-015-270200-
SOUTHERN NEW ENGLAND
 IN CT

CITY           SKY/WX    TMP DP  RH WIND       PRES   REMARKS
Bradley INTL   CLOUDY    61  49  64 S9        30.05S
Hartford       CLOUDY    62  51  67 S7        30.05F
Danbury        CLOUDY    63  49  60 S12       30.06S
Wtrbury/Oxford MOCLDY    61  48  63 SW8       30.08S
Bridgeport     CLOUDY    68  52  56 S15       30.06F
Meriden        CLOUDY    65  50  58 S6        30.06S
New Haven      CLOUDY    66  51  58 S10G22    30.07S
Chester        MOCLDY    63  52  67 S7        30.07S
Groton         PTCLDY    66  51  58 S18       30.07S
Wilimantic     CLOUDY    57  50  77 CALM      30.08S

 IN RI

CITY           SKY/WX    TMP DP  RH WIND       PRES   REMARKS
Providence     PTCLDY    56  47  71 S6        30.08F
Block Island   CLEAR     64  49  57 S13       30.09F
Westerly       PTCLDY    65  46  50 S10       30.09F
 IN MA

CITY           SKY/WX    TMP DP  RH WIND       PRES   REMARKS
Boston         CLOUDY    60  48  64 SW14      30.07R
Worcester      CLOUDY    55  46  71 S14       30.06F
Westfield      CLOUDY    60  49  66 S7        30.04S
Provincetown   PTCLDY    59  50  72 S10       30.09F
Nantucket      CLEAR     60  47  61 S12       30.12S
$$

ANZ330-335-338-340-345-350-353-355-270200-
COASTAL MARINE OBSERVATIONS


STATION/POSITION TIME  SKY/WX   TEMP    WIND        PRES    VSBY  WAVE
                                AIR SEA DIR/SP/G                  HT/PER
                 (UTC)          (F)     (DEG/KT/KT) (MB)    (MI)  (FT/S)
NY HARB ENTRANCE 2350            68 71  190/ 16/ 19 1018.0          3/ 4
20S FIRE ISLAND  2350            67 69  170/ 16/ 17 1018.2          3/ 9
GREAT SOUTH BAY  0030            67 70  210/ 14/ 17   N/A
23 SSW MONTAUK P 2350            66 68  190/ 16/ 17 1019.2          2/ 9
15 E BARNEGAT LI 0030               70                N/A           3/ 4
HUDSON CANYON    2350            68 69              1019.1          2/ 9
KINGS POINT      0030            68 72              1017.5
EXECUTION ROCKS  0045            69     180/ 14/ 17   N/A
CENTRAL LI SOUND 0030            67 72  190/ 16/ 19   N/A           2/ 3
EASTERN LI SOUND NOT AVBL
ROBBINS REEF     0030            68     180/ 17/ 20 1017.8
$$


>>>>>>>>>>>>>>>>>>>>>>>>>>>> KEY <<<<<<<<<<<<<<<<<<<<<<<<<<<
>                                                          <
>     SKY/WX - Sky Condition/Present Weather               <
>     TMP    - Temperature in Fahrenheit                   <
>     DP     - Dew Point in Fahrenheit                     <
>     RH     - Relative Humidity in Percent                <
>     WIND   - Direction (from) and Speed in MPH           <
>     PRES   - Mean Sea Level Pressure (inches of Hg)      <
>     WCI    - Wind Chill Index                            <
>     VSB    - VISIBILITY IN MILES                         <
>     HX     - HEAT INDEX                                  <
>     TC     - TEMPERATURE IN CELSIUS                      <
>     VRB    - VARIABLE WIND DIRECTION                     <
>                                                          <
>>>>>>>>>>>>>>>>>>>>>>>>>>>> KEY <<<<<<<<<<<<<<<<<<<<<<<<<<<



USA.gov is the U.S. government's official web portal to all federal, state and local government web resources and services.